Home   Weather   Gjøvik   Past weeks
Flag for Norway

Past Weather in Gjøvik, Norway — Yesterday and Last 2 Weeks

Now
69 °F

Mild.


Feels Like: 69 °F
Forecast: 72 / 48 °F
Wind: 2 mph from Southeast

Location: Lillehammer-Saetherengen

Current Time: Jul 16, 2019 at 8:38:21 pm

Latest Report: Jul 16, 2019 at 7:00 pm


Visibility: N/A

Pressure: 29.88 "Hg

Humidity: 38%

Dew Point: 43 °F

Location of GjøvikLocation

Past Weather in Gjøvik — Graph

°F

Gjøvik Temperature Yesterday

Maximum temperature yesterday: 66 °F (at 4:00 pm)
Minimum temperature yesterday: 53 °F (at 6:00 am)
Average temperature yesterday: 59 °F

High & Low Weather Summary for the Past Weeks

 TemperatureHumidityPressure
High79 °F (Jul 13, 6:00 pm)96% (Jul 15, 2:00 am)30.00 "Hg (Jul 15, 2:00 am)
Low42 °F (Jul 3, 4:00 am)25% (Jul 10, 4:00 pm)29.38 "Hg (Jul 1, 7:00 pm)
Average59 °F58%29.79 "Hg
* Reported Jul 1 7:00 pm — Jul 16 7:00 pm, Gjøvik. Weather by CustomWeather, © 2019

Note: Actual official high and low records may vary slightly from our data, if they occured in-between our weather recording intervals... More about our weather records

Advertising

Gjøvik Weather History for the Previous 24 Hours

Scroll right to see more
 ConditionsComfort  
Time TempWeatherWind HumidityBarometerVisibility
7:00 pm
Tue, Jul 16
69 °FMild.2 mph38%29.88 "HgN/A
6:00 pm70 °FMild.1 mph38%29.87 "HgN/A
5:00 pm68 °FMild.1 mph40%29.88 "HgN/A
4:00 pm65 °FMild.2 mph45%29.89 "HgN/A
3:00 pm67 °FMild.3 mph42%29.89 "HgN/A
2:00 pm64 °FMild.5 mph45%29.89 "HgN/A
1:00 pm64 °FMild.6 mph44%29.89 "HgN/A
12:00 pm63 °FMild.5 mph44%29.91 "HgN/A
11:00 am60 °FRefreshingly cool.5 mph47%29.92 "HgN/A
10:00 am59 °FRefreshingly cool.5 mph48%29.93 "HgN/A
9:00 am56 °FRefreshingly cool.7 mph50%29.93 "HgN/A
8:00 am54 °FCool.7 mph53%29.93 "HgN/A
7:00 am53 °FCool.6 mph55%29.92 "HgN/A
6:00 am52 °FCool.2 mph60%29.92 "HgN/A
5:00 am52 °FCool.3 mph62%29.92 "HgN/A
4:00 am53 °FCool.6 mph61%29.91 "HgN/A
3:00 am52 °FCool.No wind79%29.90 "HgN/A
2:00 am51 °FCool.1 mph83%29.90 "HgN/A
1:00 am53 °FCool.1 mph78%29.88 "HgN/A
12:00 am54 °FCool.1 mph76%29.88 "HgN/A
11:00 pm
Mon, Jul 15
56 °FCool.2 mph63%29.88 "HgN/A
10:00 pm57 °FCool.3 mph63%29.85 "HgN/A
9:00 pm63 °FMild.2 mph55%29.82 "HgN/A
8:00 pm64 °FMild.1 mph50%29.80 "HgN/A
Weather by CustomWeather, © 2019

See weather overview

LIVE PARTIAL LUNAR ECLIPSE – Watch the eclipse as it happens